This is the latest recevied weather packets stored in our database for station/object DL3NDS-WX. If no packets are shown the sender has not sent any weather packets the latest 10 day(s).
| Time | Temp. | Humidity | Pressure | Rain* | Wind** | Luminosity | Snow |
|---|---|---|---|---|---|---|---|
| 1787925831 | 19.44° C | 90% | 1015.6 hPa | 0.25 mm | - | 137 W/m² | - |
| 1787925770 | 19.44° C | 90% | 1015.6 hPa | 0.25 mm | - | 139 W/m² | - |
| 1787925708 | 19.44° C | 90% | 1015.6 hPa | 0.25 mm | - | 141 W/m² | - |
| 1787925646 | 19.44° C | 90% | 1015.6 hPa | 0.25 mm | - | 141 W/m² | - |
| 1787925583 | 19.44° C | 90% | 1015.5 hPa | 0.25 mm | - | 141 W/m² | - |
| 1787925535 | 19.44° C | 90% | 1015.5 hPa | 0.25 mm | - | 142 W/m² | - |
| 1787925496 | 19.44° C | 90% | 1015.5 hPa | 0.25 mm | - | 142 W/m² | - |
| 1787925463 | 19.44° C | 90% | 1015.5 hPa | 0.25 mm | - | 146 W/m² | - |
| 1787925341 | 19.44° C | 90% | 1015.3 hPa | 0.25 mm | - | 148 W/m² | - |
| 1787925280 | 19.44° C | 90% | 1015.3 hPa | 0.25 mm | - | 149 W/m² | - |
| 1787925217 | 19.44° C | 90% | 1015.3 hPa | 0.25 mm | - | 149 W/m² | - |
| 1787925156 | 19.44° C | 90% | 1015.3 hPa | 0.25 mm | - | 151 W/m² | - |
| 1787925097 | 19.44° C | 90% | 1015.3 hPa | 0.25 mm | - | 155 W/m² | - |
| 1787925036 | 19.44° C | 90% | 1015.2 hPa | 0.25 mm | - | 158 W/m² | - |
| 1787924975 | 19.44° C | 91% | 1015.2 hPa | 0.25 mm | - | 162 W/m² | - |
| 1787924907 | 19.44° C | 91% | 1015.1 hPa | 0.25 mm | - | 167 W/m² | - |
| 1787924845 | 19.44° C | 91% | 1015 hPa | 0.25 mm | - | 174 W/m² | - |
| 1787924784 | 19.44° C | 91% | 1014.8 hPa | 0.25 mm | - | 195 W/m² | - |
| 1787924722 | 19.44° C | 91% | 1014.6 hPa | 0.25 mm | - | 211 W/m² | - |
| 1787924662 | 19.44° C | 91% | 1014.5 hPa | 0.25 mm | - | 236 W/m² | - |
| 1787924600 | 19.44° C | 91% | 1014.5 hPa | 0.25 mm | - | 265 W/m² | - |
| 1787924538 | 19.44° C | 91% | 1014.4 hPa | 0.25 mm | - | 265 W/m² | - |
| 1787924477 | 19.44° C | 91% | 1014.4 hPa | 0.25 mm | - | 272 W/m² | - |
| 1787924417 | 19.44° C | 91% | 1014.5 hPa | 0.25 mm | - | 287 W/m² | - |
| 1787924354 | 19.44° C | 91% | 1014.6 hPa | 0.25 mm | - | 299 W/m² | - |
* Rain latest hour (hover to see other rain measurements)
** Current wind speed in m/s (hover to see current wind gust speed)